TimeMDT,TemperatureF,Dew PointF,Humidity,Sea Level PressureIn,VisibilityMPH,Wind Direction,Wind SpeedMPH,Gust SpeedMPH,PrecipitationIn,Events,Conditions,WindDirDegrees,DateUTC
12:56 AM,26.1,17.1,69,30.13,-9999.0,WSW,9.2,-,N/A,,Unknown,250,2012-10-07 06:56:00
1:56 AM,26.1,18.0,71,30.10,-9999.0,WSW,10.4,-,N/A,,Unknown,250,2012-10-07 07:56:00
2:56 AM,28.9,19.0,67,30.07,-9999.0,West,13.8,-,N/A,,Unknown,260,2012-10-07 08:56:00
3:56 AM,28.0,19.0,69,30.05,-9999.0,West,12.7,-,N/A,,Unknown,260,2012-10-07 09:56:00
4:56 AM,26.1,19.0,75,30.04,-9999.0,West,12.7,-,N/A,,Unknown,270,2012-10-07 10:56:00
5:56 AM,28.0,21.0,75,30.03,-9999.0,West,12.7,-,N/A,,Unknown,260,2012-10-07 11:56:00
6:56 AM,28.0,21.0,75,30.03,-9999.0,West,11.5,-,N/A,,Unknown,260,2012-10-07 12:56:00
7:56 AM,28.9,24.1,82,30.04,-9999.0,West,9.2,-,N/A,,Unknown,270,2012-10-07 13:56:00
8:56 AM,42.1,30.9,65,30.01,-9999.0,West,20.7,25.3,N/A,,Unknown,280,2012-10-07 14:56:00
9:56 AM,46.9,32.0,56,30.00,-9999.0,West,19.6,-,N/A,,Unknown,280,2012-10-07 15:56:00
10:56 AM,51.1,34.0,52,29.98,-9999.0,WNW,24.2,31.1,N/A,,Unknown,290,2012-10-07 16:56:00
11:56 AM,54.0,32.0,43,29.96,-9999.0,West,27.6,34.5,N/A,,Unknown,280,2012-10-07 17:56:00
12:56 PM,54.0,30.9,41,29.94,-9999.0,WNW,24.2,32.2,N/A,,Unknown,290,2012-10-07 18:56:00
1:56 PM,57.9,32.0,37,29.91,-9999.0,West,27.6,36.8,N/A,,Unknown,280,2012-10-07 19:56:00
2:56 PM,57.9,30.0,35,29.88,-9999.0,WNW,23.0,31.1,N/A,,Unknown,290,2012-10-07 20:56:00
3:56 PM,57.9,30.0,35,29.86,-9999.0,NW,21.9,-,N/A,,Unknown,310,2012-10-07 21:56:00
4:56 PM,57.9,30.0,35,29.85,-9999.0,WNW,18.4,27.6,N/A,,Unknown,300,2012-10-07 22:56:00
5:56 PM,54.0,28.9,38,29.85,-9999.0,WNW,11.5,-,N/A,,Unknown,300,2012-10-07 23:56:00
6:56 PM,51.1,28.9,43,29.85,-9999.0,WNW,9.2,-,N/A,,Unknown,300,2012-10-08 00:56:00
7:56 PM,46.9,30.0,52,29.85,-9999.0,SW,5.8,-,N/A,,Unknown,220,2012-10-08 01:56:00
8:56 PM,46.0,30.0,54,29.81,-9999.0,WSW,8.1,-,N/A,,Unknown,240,2012-10-08 02:56:00
9:56 PM,48.0,30.9,52,29.78,-9999.0,WSW,8.1,-,N/A,,Unknown,240,2012-10-08 03:56:00
10:56 PM,48.9,30.0,48,29.74,-9999.0,WSW,9.2,-,N/A,,Unknown,240,2012-10-08 04:56:00
11:56 PM,50.0,28.0,43,29.71,-9999.0,WSW,12.7,-,N/A,,Unknown,240,2012-10-08 05:56:00